Regional Weather Roundup
Issued by NWS

Home | Current Version | Previous Version | Text Only | Print | Product List | Glossary On
Versions: 1 2 3 4 5 6 7 8 9 10 11 12 13 14 15 16 17 18 19 20 21 22 23 24 25 26 27 28 29 30 31 32 33 34 35 36 37 38 39 40 41 42 43 44 45 46 47 48 49 50
000
ASUS43 KMPX 270510
RWRMN
WEATHER ROUNDUP FOR MINNESOTA
NATIONAL WEATHER SERVICE TWIN CITIES/CHANHASSEN MN
1100 PM CST WED NOV 26 2014


NOTE: "FAIR" INDICATES FEW OR NO CLOUDS BELOW 12,000 FEET WITH NO
SIGNIFICANT WEATHER AND/OR OBSTRUCTIONS TO VISIBILITY. N/A MEANS
CURRENT SKY AND/OR WEATHER CONDITIONS ARE NOT AVAILABLE.

MNZ060>063-068>070-270600-
   Twin Cities Metro

CITY           SKY/WX    TMP DP  RH WIND       PRES   REMARKS
TWIN CITIES    MOCLDY    15   5  64 N14       30.37R WCI   0
ST PAUL        CLOUDY    15   6  67 NW14      30.39R WCI   0
CRYSTAL        PTCLDY    14   2  58 N10       30.37R WCI   1
BLAINE         PTCLDY    14   1  57 NW12      30.37R WCI   0
LAKEVILLE      LGT SNOW  14  10  85 NW9       30.36R WCI   2
EDEN PRAIRIE   CLOUDY    14   1  56 NW13      30.36R WCI   0
SOUTH ST PAUL  CLOUDY    17   8  67 N13       30.37R WCI   3
LAKE ELMO      CLOUDY    18   9  68 N12       30.36R WCI   5
$$
MNZ001>005-007-008-013>017-022>024-027-028-270600-
   Northwest Minnesota

CITY           SKY/WX    TMP DP  RH WIND       PRES   REMARKS
BEMIDJI        PTCLDY   -12 -16  82 NW6       30.44R WCI -26
HALLOCK        PTCLDY   -11 -17  77 W3        30.54S
ROSEAU         PTCLDY    -9 -17  70 W3        30.50S
WARROAD        PTCLDY   -11 -17  77 CALM      30.48F
THIEF RVR FALL CLEAR     -8  -9  92 N6        30.49S WCI -21
CROOKSTON      CLEAR    -11 -17  77 NW3       30.55S
FOSSTON        FAIR     -15 -20  76 CALM      30.48R
DETROIT LAKES  PTCLDY    -8  -9  92 N8        30.47R WCI -23
MOORHEAD       PTCLDY    -9 -11  92 NW6       30.55R WCI -23
PARK RAPIDS    CLEAR     -9 -13  83 NW7       30.42R WCI -24
MAHNOMEN       FAIR     -10 -15  80 N3        30.48S
$$
MNZ006-009>011-018-025>026-270600-
   North Central Minnesota

CITY           SKY/WX    TMP DP  RH WIND       PRES   REMARKS
BAUDETTE       PTCLDY    -9 -14  78 NW3       30.46R
FLAG ISLAND    PTCLDY   -11 -17  77 NW9       30.47S WCI -29
INTL FALLS     CLEAR     -9 -13  83 NW7       30.42S WCI -24
WASKISH        CLEAR     -8 -11  84 NW7       30.45S WCI -22
BIG FORK       CLEAR     -8 -11  84 NW5       30.42R WCI -19
LONGVILLE      FAIR      -4  -9  77 N3        30.42R
GRAND RAPIDS   CLEAR     -6  -9  84 NW9       30.38R WCI -22
CRANE LAKE     CLEAR     -4  -9  77 CALM      30.43S
ORR            CLEAR     -8 -11  84 CALM      30.36R
COOK           CLEAR    -11 -15  84 W3        30.39R
WALKER         FAIR      -7 -12  79 CALM      30.43S
$$
MNZ012-019>021-037-270600-
   Northeast Minnesota

CITY           SKY/WX    TMP DP  RH WIND       PRES   REMARKS
DULUTH         CLEAR      0  -7  72 N13       30.32S WCI -18
ELY            CLEAR     -6  -9  84 NW5       30.35R WCI -17
HIBBING        CLEAR     -3  -9  75 N10       30.38R WCI -20
EVELETH        FAIR       0  -6  78 N3        30.37S
DULUTH HARBOR  PTCLDY     7   0  72 N14       30.43R WCI -10
TWO HARBORS    PTCLDY     3  -4  72 N5        30.33R WCI  -6
SILVER BAY     CLEAR      1  -6  71 NW8       30.33R WCI -12
GRAND MARAIS     N/A      2  -8  63 N15G41    30.33R WCI -17
G MARAIS ARPRT PTCLDY    -8 -13  77 N15       30.23S WCI -29
$$
MNZ029>031-032-039>041-046>048-054>057-064-270600-
   West Central Minnesota

CITY           SKY/WX    TMP DP  RH WIND       PRES   REMARKS
FERGUS FALLS   PTCLDY    -6 -11  77 N8        30.54R WCI -21
WHEATON        PTCLDY    -6  -9  84 NW9       30.54S WCI -22
MORRIS         CLEAR     -2  -8  78 N14       30.48R WCI -21
ALEXANDRIA     CLEAR     -2  -8  76 NW13      30.44R WCI -20
ELBOW LAKE     FAIR      -4  -8  83 N9        30.48R WCI -20
WADENA         CLEAR     -6  -9  84 NW6       30.44R WCI -18
GLENWOOD       CLEAR     -2  -8  78 NW10      30.43R WCI -19
APPLETON       CLEAR      0  -6  78 NW15      30.50R WCI -20
BENSON         CLEAR     -2  -8  78 N13       30.47R WCI -21
ORTONVILLE     PTCLDY    -2  -8  78 NW6       30.50R WCI -14
MADISON        FAIR       3  -2  78 NW10      30.51R WCI -12
WILLMAR        FAIR       1  -6  71 NW10      30.44S WCI -14
$$
MNZ033>034-036-042>043-049>051-058-059-270600-
   Central Minnesota

CITY           SKY/WX    TMP DP  RH WIND       PRES   REMARKS
ST CLOUD       CLEAR      6  -5  60 N10       30.41R WCI  -9
SAUK CENTRE    FAIR      -1  -7  76 NW10      30.43S WCI -17
PAYNESVILLE    CLEAR     -1  -7  78 W5        30.43R WCI -11
AITKIN         CLEAR      1  -8  66 N6        30.40R WCI -10
PINE RIVER     CLEAR     -2  -8  78 NW5       30.44R WCI -12
BRAINERD       CLEAR      0  -8  69 N10       30.42R WCI -16
STAPLES        CLEAR     -6  -9  84 NW7       30.43R WCI -20
LONG PRAIRIE   FAIR       0  -8  71 NW7       30.43R WCI -13
LITTLE FALLS   CLEAR      3  -6  66 NW6       30.43R WCI  -8
LITCHFIELD     CLEAR      5  -2  72 NW9G16    30.41R WCI  -9
BUFFALO        CLEAR      9  -3  56 NW10G18   30.41R WCI  -5
MAPLE LAKE     CLEAR      9  -2  61 N12       30.41R WCI  -6
$$
MNZ037-044-045-052-053-270600-
   East Central Minnesota

CITY           SKY/WX    TMP DP  RH WIND       PRES   REMARKS
PRINCETON      PTCLDY     9  -2  61 NW9       30.40R WCI  -5
MORA           CLEAR      7  -2  66 N7        30.42R WCI  -5
CAMBRIDGE      CLEAR     10  -2  56 NW7       30.38R WCI   0
RUSH CITY      PTCLDY     8  -2  62 N7        30.40R WCI  -3
MOOSE LAKE     CLEAR      3  -4  72 N9        30.38R WCI -11
HINCKLEY       FAIR       9   0  66 N13       30.39R WCI  -7
CLOQUET        CLEAR      0  -8  71 NW10      30.36R WCI -17
MCGREGOR       CLEAR      1  -4  78 NW9       30.41R WCI -14
$$
MNZ071>073-080-081-089-090-097-098-270600-
   Southwest Minnesota

CITY           SKY/WX    TMP DP  RH WIND       PRES   REMARKS
MONTEVIDEO     CLEAR     -2  -6  84 N10       30.49R WCI -19
GRANITE FALLS  CLEAR     -1  -6  78 NW14      30.49R WCI -19
CANBY          CLEAR     -1  -6  80 NW10      30.50R WCI -17
MARSHALL       CLEAR      0  -9  65 NW15      30.46R WCI -20
REDWOOD FALLS  CLEAR      1  -5  75 NW16      30.45R WCI -19
OLIVIA         CLEAR      1  -4  78 NW14      30.44R WCI -17
PIPESTONE      CLEAR      3  -8  60 N9        30.41R WCI -11
WINDOM         PTCLDY     3  -2  78 NW16      30.40R WCI -16
WORTHINGTON    PTCLDY     3  -6  66 N13       30.40R WCI -14
JACKSON        CLOUDY     9   0  66 NW16      30.39R WCI  -9
TRACY          CLEAR      1  -5  73 NW14      30.45R WCI -17
SLAYTON        CLEAR      2  -5  72 NW12G17   30.42R WCI -14
$$
MNZ065>067-074>077-082>085-091>093-270600-
   South Central Minnesota

CITY           SKY/WX    TMP DP  RH WIND       PRES   REMARKS
MANKATO        CLOUDY    12   7  79 NW15      30.36S WCI  -4
NEW ULM        PTCLDY     5   1  85 NW20      30.39R WCI -15
ST JAMES       CLOUDY     9   1  72 W21       30.42R WCI -11
FAIRMONT       CLOUDY     9   1  72 NW16      30.38R WCI  -9
GLENCOE        CLEAR     12   2  63 NW12G18   30.39R WCI  -2
FARIBAULT      FLURRIES  16  10  79 NW12      30.34R WCI   3
OWATONNA       CLOUDY    14  10  85 W13       30.33R WCI   0
WASECA         FLURRIES  14   9  79 NW10      30.36R WCI   1
ALBERT LEA     CLOUDY    14  10  85 NW12      30.33R WCI   0
$$
MNZ078>079-086>088-094>096-270600-
   Southeast Minnesota

CITY           SKY/WX    TMP DP  RH WIND       PRES   REMARKS
ROCHESTER      LGT SNOW  20  16  84 NW15      30.28R FOG     WCI   6
RED WING       LGT SNOW  19  12  73 NW8       30.33R WCI   9
STANTON        LGT SNOW  19  13  79 NW14      30.33R WCI   5
DODGE CENTER   CLOUDY    19  16  86 NW10      30.29S WCI   8
WINONA         CLOUDY    25  19  80 NW7       30.30S WCI  17
AUSTIN         FLURRIES  18  14  86 NW13      30.30R WCI   4
PRESTON        CLOUDY    21  16  81 NW9       30.28R WCI  10
$$
ABBREVIATIONS USED IN REMARKS
   TC - TEMPERATURES IN CELSIUS
  WCI - WIND CHILL INDEX
   HX - HEAT INDEX
  VSB - VISIBILITY
$$



USA.gov is the U.S. government's official web portal to all federal, state and local government web resources and services.